Location: Crescent
(42.8242°N, 73.7329°W)
Time: 02:22:36
(UTC+00:00)

Altair - All Passes

Search period start: 07 February 2026 00:00
Search period end: 17 February 2026 00:00
Orbit: 1502 x 1682 km, 47.2° (Epoch: 6 February)

Date Brightness Start Highest point End Pass type
(mag) Time Alt. Az. Time Alt. Az. Time Alt. Az.
7 Feb - 09:30:24 10° SE 09:33:34 12° ESE 09:36:44 10° E visible
7 Feb - 11:27:35 10° SSW 11:36:21 49° SE 11:45:25 10° ENE visible
7 Feb - 13:31:15 10° WSW 13:40:44 82° NNW 13:50:36 10° ENE daylight
7 Feb - 15:36:38 10° WNW 15:46:15 69° N 15:56:15 10° E daylight
7 Feb - 17:41:41 10° WNW 17:51:30 79° SSW 18:01:36 10° SE daylight
7 Feb - 19:47:06 10° WNW 19:55:25 32° SW 20:03:53 10° S daylight
8 Feb - 09:07:29 10° SE 09:08:31 10° ESE 09:09:32 10° ESE visible
8 Feb - 11:02:35 10° SSW 11:11:12 45° SE 11:20:05 10° ENE visible
8 Feb - 13:06:02 10° WSW 13:15:28 84° NNW 13:25:18 10° ENE daylight
8 Feb - 15:11:21 10° W 15:20:56 69° N 15:30:53 10° E daylight
8 Feb - 17:16:26 10° WNW 17:26:14 83° SSW 17:36:20 10° ESE daylight
8 Feb - 19:21:42 10° WNW 19:30:16 34° SW 19:38:59 10° SSE daylight
9 Feb - 10:37:37 10° SSW 10:46:03 41° SE 10:54:45 10° ENE visible
9 Feb - 12:40:48 10° WSW 12:50:11 87° NNW 12:59:59 10° ENE daylight
9 Feb - 14:46:05 10° W 14:55:36 68° N 15:05:31 10° E daylight
9 Feb - 16:51:12 10° WNW 17:00:58 86° SSW 17:11:05 10° ESE daylight
9 Feb - 18:56:21 10° WNW 19:05:06 37° SW 19:14:02 10° SSE daylight
10 Feb - 10:12:40 10° SSW 10:20:55 38° SE 10:29:24 10° ENE visible
10 Feb - 12:15:35 10° WSW 12:24:56 89° SSE 12:34:42 10° ENE daylight
10 Feb - 14:20:48 10° W 14:30:17 68° N 14:40:10 10° E daylight
10 Feb - 16:25:57 10° WNW 16:35:42 90° SSW 16:45:47 10° ESE daylight
10 Feb - 18:31:02 10° WNW 18:39:55 40° SW 18:49:02 10° SSE daylight
11 Feb - 09:47:47 10° SSW 09:55:48 35° SE 10:04:02 10° ENE visible
11 Feb - 11:50:22 10° WSW 11:59:42 86° SSE 12:09:24 10° ENE daylight
11 Feb - 13:55:32 10° W 14:04:58 68° N 14:14:48 10° E daylight
11 Feb - 16:00:42 10° WNW 16:10:25 87° NNE 16:20:29 10° ESE daylight
11 Feb - 18:05:43 10° WNW 18:14:45 43° SW 18:24:01 10° SSE daylight
11 Feb - 20:16:41 10° WSW 20:17:37 10° WSW 20:18:34 10° SW daylight
12 Feb - 09:22:54 10° S 09:30:41 32° SE 09:38:38 10° ENE visible
12 Feb - 11:25:11 10° WSW 11:34:28 82° SSE 11:44:06 10° ENE visible
12 Feb - 13:30:15 10° W 13:39:40 68° N 13:49:27 10° E daylight
12 Feb - 15:35:28 10° WNW 15:45:08 84° NNE 15:55:10 10° ESE daylight
12 Feb - 17:40:25 10° WNW 17:49:34 47° SW 17:58:58 10° SSE daylight
12 Feb - 19:49:19 10° WSW 19:52:32 12° WSW 19:55:48 10° SW daylight
13 Feb - 08:58:05 10° S 09:05:35 29° SE 09:13:14 10° ENE visible
13 Feb - 11:00:01 10° SW 11:09:14 79° SSE 11:18:49 10° ENE visible
13 Feb - 13:04:58 10° W 13:14:21 69° N 13:24:07 10° ENE daylight
13 Feb - 15:10:13 10° WNW 15:19:51 82° NNE 15:29:51 10° ESE daylight
13 Feb - 17:15:08 10° WNW 17:24:22 50° SW 17:33:53 10° SSE daylight
13 Feb - 19:23:05 10° W 19:27:27 14° WSW 19:31:53 10° SSW daylight
14 Feb - 08:33:18 10° S 08:40:29 27° SE 08:47:48 10° ENE visible
14 Feb - 10:34:51 10° SW 10:44:01 75° SSE 10:53:33 10° ENE visible
14 Feb - 12:39:42 10° W 12:49:02 70° N 12:58:46 10° ENE daylight
14 Feb - 14:44:58 10° WNW 14:54:33 79° NNE 15:04:31 10° ESE daylight
14 Feb - 16:49:52 10° WNW 16:59:11 54° SW 17:08:47 10° SE daylight
14 Feb - 18:57:10 10° W 19:02:21 16° SW 19:07:38 10° SSW daylight
15 Feb - 08:08:34 10° S 08:15:24 24° SE 08:22:20 10° E visible
15 Feb - 10:09:42 10° SW 10:18:49 71° SSE 10:28:16 10° ENE visible
15 Feb - 12:14:25 10° W 12:23:45 71° N 12:33:27 10° ENE daylight
15 Feb - 14:19:44 10° WNW 14:29:16 77° NNE 14:39:11 10° ESE daylight
15 Feb - 16:24:36 10° WNW 16:33:58 57° SW 16:43:39 10° SE daylight
15 Feb - 18:31:24 10° W 18:37:15 18° SW 18:43:13 10° SSW daylight
16 Feb - 07:43:53 10° S 07:50:19 22° SE 07:56:49 10° E visible
16 Feb - 09:44:34 10° SW 09:53:38 67° SSE 10:02:59 10° ENE visible
16 Feb - 11:49:09 10° W 11:58:27 72° N 12:08:08 10° ENE daylight
16 Feb - 13:54:29 10° WNW 14:03:58 75° NNE 14:13:51 10° E daylight
16 Feb - 15:59:21 10° WNW 16:08:46 61° SW 16:18:30 10° SE daylight
16 Feb - 18:05:46 10° W 18:12:09 20° SW 18:18:40 10° SSW daylight
